Regional Weather Roundup
Issued by NWS Albany, NY

Home | Current Version | Previous Version | Text Only | Print | Product List | Glossary On
Versions: 1 2 3 4 5 6 7 8 9 10 11 12 13 14 15 16 17 18 19 20 21 22 23 24 25 26 27
000
ASUS41 KALY 092210
RWRALY

NEW YORK STATE HOURLY WEATHER ROUNDUP
NATIONAL WEATHER SERVICE ALBANY NY
500 PM EST SAT DEC 09 2017

NOTE: "FAIR" INDICATES FEW OR NO CLOUDS BELOW 12,000 FEET WITH NO
SIGNIFICANT WEATHER AND/OR NO OBSTRUCTIONS TO VISIBILITY.

NYZ032-033-038>043-046>054-057>066-NYZ062>081-082-084-092300-
EAST


CITY           SKY/WX    TMP DP  RH WIND       PRES   REMARKS
ALBANY         LGT SNOW  28  25  88 N5        29.81F VSB 3/4 WCI  23
GLENS FALLS    FLURRIES  29  21  72 SE8       29.81S WCI  21
POUGHKEEPSIE   LGT SNOW  29  26  89 N7        29.77F VSB 1   WCI  22
NEWBURGH       LGT SNOW  28  28 100 N7        29.77F WCI  21
MONTGOMERY     LGT SNOW  28  26  92 N8        29.75F FOG     WCI  20
WHITE PLAINS   LGT SNOW  30  28  92 N9        29.72F FOG     WCI  22
ISLIP          LGT SNOW  33  32  96 N12       29.70F FOG     WCI  24
NEW YORK CITY  LGT SNOW  32  30  92 N13       29.74R VSB 3/4 WCI  22
CENTRAL PARK   LGT SNOW  31  30  96 VRB7      29.75F FOG     WCI  24
$$

NYZ005>009-017-018-044>046-055-056-092300-
CENTRAL


CITY           SKY/WX    TMP DP  RH WIND       PRES   REMARKS
FULTON         PTCLDY    31  20  63 CALM      29.76S
SYRACUSE       MOCLDY    29  20  69 NE3       29.76F
ROME           CLOUDY    30  18  60 SE6       29.78F WCI  24
ELMIRA         PTCLDY    30  18  60 CALM      29.73S
BINGHAMTON     CLOUDY    26  15  63 CALM      29.69F
MONTICELLO     LGT SNOW  27  25  93 CALM      29.72F FOG
$$

NYZ026>034-041>043-087-092300-
NORTH


CITY           SKY/WX    TMP DP  RH WIND       PRES   REMARKS
WATERTOWN      PTCLDY    27  20  75 E5        29.77S WCI  22
FORT DRUM      NOT AVBL
OGDENSBURG     CLOUDY    31  26  81 CALM      29.79S
MASSENA        CLEAR     28  25  88 NE3       29.82F
SARANAC LAKE   PTCLDY    25  20  81 CALM      29.71F
PLATTSBURGH    CLOUDY    32  20  61 CALM      29.81F
$$

NYZ001>004-010>016-019>021-085-092300-
WEST


CITY           SKY/WX    TMP DP  RH WIND       PRES   REMARKS
NIAGARA FALLS  PTCLDY    33  15  47 W5        29.76R WCI  29
BUFFALO        MOCLDY    29  15  56 W5        29.75S WCI  24
DUNKIRK        CLOUDY    26  15  63 CALM      29.76R
JAMESTOWN      PTCLDY    29  10  45 W5        29.70R WCI  24
WELLSVILLE     CLEAR     29   8  41 SW5       29.68S WCI  24
ROCHESTER      MOCLDY    33  13  43 W3        29.75S
PENN YAN       PTCLDY    30  15  53 E7        29.72F HAZE    WCI  23
$$

             KEY
       WCI = WIND CHILL INDEX
       VSB = VISIBILITY
       HX  = HEAT INDEX
$$




USA.gov is the U.S. government's official web portal to all federal, state and local government web resources and services.